[[{"header":{"parameterUnit":"m.s-1","parameterCategory":1,"la1":30.2991,"la2":30.254,"lo1":-89.0895,"lo2":-89.0444,"dy":0.0017,"dx":0.0017,"nx":28,"ny":28,"refTime":"2025-12-19T09:00:00:Z","depth":0,"parameterNumber":2,"parameterNumberName":"U-component_of_WINDS"},"data":[0,0,0,0,0,0,0,0,0,0,0,0,0,0,0,0,0,0,0,0,0,0,0,0,0,0,0,0,0,0,0,0,0,0,0,0,0,0,0,0,0,0,0,0,0,0,0,0,0,0,0,0,0,0,0,0,0,0,0.4761,0.4761,0,0.4794,0.4795,0.4795,0.4812,0.4812,0.4812,0.4812,0.4846,0.4847,0.4847,0,0,0,0,0,0,0,0,0,0,0,0,0,0.4712,0.4713,0.4761,0.4761,0.4761,0.4794,0.4795,0.4795,0.4812,0.4812,0.4812,0.4812,0.4845,0.4846,0.4848,0,0,0,0,0,0,0,0,0,0,0,0,0,0.4738,0.4713,0.4761,0.4774,0.4775,0.4794,0.4795,0.4795,0.4812,0.4812,0.4812,0.4812,0.4845,0.4846,0.4848,0.4856,0,0,0.4852,0.4852,0,0,0,0,0,0,0,0,0.4736,0.474,0.4771,0.4773,0.4775,0.4799,0.479,0.4816,0.4812,0.4798,0.4812,0.4812,0.483,0.4833,0.4839,0.4858,0.4859,0.4852,0.4853,0.4853,0.4854,0,0,0,0,0,0,0,0.4735,0.4738,0.4774,0.4772,0.4774,0.4778,0.4782,0.4795,0.4813,0.4799,0.48,0.4804,0.4831,0.4838,0.484,0.4859,0.4852,0.4853,0.4854,0.4854,0.4888,0.4888,0,0,0,0,0,0,0.4731,0.4737,0.4773,0.4775,0.4755,0.4779,0.4783,0.4791,0.4813,0.4817,0.4804,0.4805,0.4835,0.4838,0.4841,0.4853,0.4853,0.4855,0.4855,0.4888,0.4888,0.4888,0,0,0,0,0,0,0.4729,0.4734,0.4771,0.4756,0.4761,0.478,0.4788,0.4792,0.4798,0.4817,0.4821,0.4807,0.4835,0.4839,0.4853,0.4855,0.4855,0.4856,0.4888,0.4888,0.4888,0.4877,0,0,0,0,0,0,0.4728,0.4733,0.4736,0.4756,0.4762,0.4782,0.4789,0.4792,0.4801,0.4802,0.4821,0.4824,0.4836,0.485,0.4854,0.4856,0.4858,0.4888,0.4888,0.4888,0.4877,0.4876,0.4876,0,0,0,0,0,0.4726,0.4731,0.4736,0.474,0.4766,0.4782,0.4785,0.4798,0.4801,0.4804,0.4817,0.4824,0.4854,0.4852,0.4856,0.4859,0.4888,0.4888,0.4888,0.4877,0.4876,0.4876,0,0,0,0,0,0,0.471,0.4734,0.474,0.4751,0.4765,0.4785,0.4789,0.4797,0.481,0.481,0.4826,0.483,0.4842,0.4852,0.4849,0.4869,0.4872,0.4873,0.4862,0.4861,0.4861,0.4858,0.4859,0,0,0,0,0,0.4708,0.4719,0.4739,0.4747,0.4754,0.477,0.4778,0.4787,0.4801,0.4807,0.482,0.4834,0.4847,0.4855,0.4867,0.4879,0.4884,0.4883,0.4882,0.4882,0.4882,0.489,0.4891,0.4889,0.4889,0.4889,0,0,0.4703,0.4718,0.4723,0.4744,0.4756,0.4767,0.4775,0.4786,0.4795,0.4808,0.4822,0.4833,0.4849,0.4862,0.4868,0.487,0.4884,0.4882,0.4882,0.4882,0.4891,0.4891,0.4891,0.4889,0.4889,0.4889,0,0,0.4701,0.4713,0.4721,0.4733,0.475,0.4762,0.4764,0.4784,0.4791,0.4805,0.4816,0.4827,0.4848,0.486,0.4869,0.4873,0.488,0.4877,0.4874,0.4881,0.4881,0.4882,0.4884,0.4884,0.4877,0.4877,0.4877,0,0.4693,0.471,0.4725,0.4736,0.4745,0.4759,0.4768,0.4779,0.4799,0.4806,0.4808,0.4836,0.4848,0.4864,0.4865,0.4872,0.4875,0.4874,0.488,0.4881,0.4881,0.4883,0.4884,0.4877,0.4877,0.4877,0.4877,0,0.47,0.4712,0.4717,0.4737,0.4747,0.4757,0.4774,0.4782,0.4791,0.4802,0.4817,0.4832,0.4849,0.4854,0.4862,0.4872,0.4872,0.4877,0.4881,0.488,0.4883,0.4884,0.4876,0.4876,0.4876,0.4876,0,0,0.4687,0.4716,0.4718,0.4728,0.4749,0.4759,0.477,0.4787,0.4794,0.4808,0.4819,0.4837,0.4842,0.4852,0.4862,0.4869,0.4873,0.4873,0.4874,0.4873,0.4885,0.4882,0.4882,0.4878,0.4878,0.4878,0.4884,0,0.4688,0.4708,0.4723,0.4738,0.475,0.4764,0.4774,0.4788,0.48,0.4812,0.4825,0.4838,0.4843,0.485,0.4857,0.487,0.4875,0.487,0.4888,0.4888,0.4883,0.4883,0.4879,0.4884,0.4885,0.4885,0.4885,0,0.4691,0.4705,0.4722,0.4743,0.4749,0.4757,0.4775,0.4786,0.4803,0.4811,0.4823,0.4834,0.4847,0.485,0.4869,0.4865,0.4874,0.4882,0.4882,0.4884,0.4887,0.4885,0.4885,0.4886,0.4887,0.4887,0.4887,0,0.468,0.4704,0.4717,0.4725,0.475,0.4756,0.4767,0.4784,0.4794,0.4809,0.4816,0.4833,0.4842,0.4855,0.487,0.487,0.4888,0.4891,0.4895,0.4895,0.4897,0.4897,0.4899,0.4903,0.4903,0.4903,0.4903,0,0.4679,0.4689,0.4713,0.4721,0.4733,0.475,0.4761,0.4773,0.4789,0.48,0.4814,0.4824,0.4843,0.4856,0.4868,0.4883,0.4887,0.4894,0.4897,0.4893,0.4892,0.4898,0.4898,0.4903,0.4903,0.4903,0.4903,0,0.4669,0.4685,0.4701,0.4724,0.473,0.4738,0.4758,0.4767,0.478,0.4794,0.4798,0.4819,0.4835,0.4851,0.4873,0.4881,0.4896,0.49,0.489,0.4891,0.4894,0.4894,0.49,0.4902,0.4904,0.4904,0.4904,0,0.4667,0.4675,0.47,0.4708,0.4719,0.4732,0.4743,0.476,0.477,0.4792,0.4798,0.4816,0.483,0.4856,0.4873,0.489,0.4894,0.4896,0.4897,0.4893,0.4895,0.4894,0.4896,0.4895,0.4895,0.4894,0.4894,0,0.4663,0.4671,0.4685,0.4703,0.4715,0.4729,0.4744,0.4751,0.4772,0.4783,0.48,0.4811,0.4834,0.4851,0.4871,0.4882,0.4892,0.4894,0.4896,0.4891,0.4885,0.4889,0.4888,0.4894,0.4894,0.4894,0.4894,0.4894,0.4657,0.4665,0.4684,0.47,0.4713,0.4728,0.4737,0.4752,0.4767,0.4787,0.4796,0.4814,0.4832,0.486,0.4871,0.4885,0.4888,0.489,0.4891,0.4891,0.4891,0.4884,0.4889,0.4889,0.4889,0.4889,0.4889,0,0.4653,0.4667,0.4681,0.4702,0.4715,0.4724,0.4741,0.4752,0.4767,0.4783,0.4798,0.4818,0.4836,0.4854,0.4873,0.4881,0.4886,0.4885,0.4885,0.4888,0.4887,0.4884,0.4881,0.4881,0.4881,0.4881,0.4881,0.4881,0.4653,0.4668,0.4678,0.47,0.4714,0.4731,0.474,0.4754,0.4768,0.479,0.4804,0.4817,0.4835,0.4855,0.4872,0.4877,0.4883,0.4881,0.4888,0.4887,0.4887,0.4888,0.4885,0.4883,0.4883,0.4887,0.4887,0.4887]},{"header":{"parameterUnit":"m.s-1","parameterCategory":1,"la1":30.2991,"la2":30.254,"lo1":-89.0895,"lo2":-89.0444,"dy":0.0017,"dx":0.0017,"nx":28,"ny":28,"refTime":"2025-12-19T09:00:00:Z","depth":0,"parameterNumber":3,"parameterNumberName":"V-component_of_WINDS"},"data":[0,0,0,0,0,0,0,0,0,0,0,0,0,0,0,0,0,0,0,0,0,0,0,0,0,0,0,0,0,0,0,0,0,0,0,0,0,0,0,0,0,0,0,0,0,0,0,0,0,0,0,0,0,0,0,0,0,0,-4.5905,-4.5906,0,-4.5946,-4.5947,-4.5947,-4.5918,-4.5916,-4.5915,-4.5914,-4.5951,-4.5954,-4.5956,0,0,0,0,0,0,0,0,0,0,0,0,0,-4.5799,-4.5801,-4.5905,-4.5906,-4.5906,-4.5946,-4.5947,-4.5947,-4.5918,-4.5916,-4.5915,-4.5913,-4.5951,-4.5953,-4.5956,0,0,0,0,0,0,0,0,0,0,0,0,0,-4.5843,-4.5802,-4.5905,-4.5897,-4.5896,-4.5946,-4.5947,-4.5947,-4.5918,-4.5916,-4.5914,-4.5913,-4.595,-4.5953,-4.5956,-4.6015,0,0,-4.5966,-4.5968,0,0,0,0,0,0,0,0,-4.584,-4.5847,-4.5897,-4.5897,-4.5897,-4.5925,-4.5923,-4.597,-4.5919,-4.591,-4.5914,-4.5912,-4.5944,-4.5948,-4.5959,-4.6017,-4.6019,-4.5967,-4.5969,-4.597,-4.5971,0,0,0,0,0,0,0,-4.5837,-4.5845,-4.5921,-4.5898,-4.5898,-4.589,-4.5894,-4.5932,-4.5937,-4.591,-4.5908,-4.5914,-4.5943,-4.5956,-4.596,-4.6019,-4.5967,-4.597,-4.5972,-4.5973,-4.6131,-4.6133,0,0,0,0,0,0,-4.5836,-4.5843,-4.592,-4.5923,-4.5864,-4.5893,-4.5898,-4.5918,-4.5937,-4.5938,-4.5916,-4.5912,-4.5952,-4.5956,-4.5961,-4.6034,-4.597,-4.5973,-4.5975,-4.6129,-4.6131,-4.6134,0,0,0,0,0,0,-4.5833,-4.5843,-4.5918,-4.5882,-4.5891,-4.5897,-4.592,-4.592,-4.5933,-4.5941,-4.5941,-4.5928,-4.595,-4.5957,-4.6003,-4.6035,-4.5975,-4.5978,-4.6126,-4.6129,-4.6132,-4.6179,0,0,0,0,0,0,-4.5831,-4.5842,-4.5865,-4.5883,-4.5893,-4.5961,-4.5922,-4.5922,-4.5939,-4.5935,-4.5952,-4.5953,-4.5949,-4.5998,-4.6007,-4.6038,-4.598,-4.6123,-4.6127,-4.6131,-4.6174,-4.6183,-4.6191,0,0,0,0,0,-4.5827,-4.5875,-4.5867,-4.5876,-4.5922,-4.5962,-4.5968,-4.5964,-4.5942,-4.5965,-4.597,-4.5953,-4.603,-4.6003,-4.6012,-4.6046,-4.6121,-4.6126,-4.6131,-4.6171,-4.6182,-4.6191,0,0,0,0,0,0,-4.5858,-4.5877,-4.5868,-4.5923,-4.5942,-4.5957,-4.5986,-4.5975,-4.5999,-4.5994,-4.5986,-4.5991,-4.604,-4.6047,-4.6017,-4.6105,-4.6072,-4.6079,-4.6099,-4.6109,-4.6117,-4.6115,-4.5983,0,0,0,0,0,-4.5872,-4.5905,-4.5918,-4.5966,-4.5976,-4.598,-4.5997,-4.5993,-4.6011,-4.6018,-4.6026,-4.6044,-4.6072,-4.6091,-4.6117,-4.6175,-4.6179,-4.6202,-4.6211,-4.6217,-4.6224,-4.6257,-4.6268,-4.615,-4.615,-4.615,0,0,-4.59,-4.5914,-4.5935,-4.5973,-4.5987,-4.602,-4.5986,-4.6022,-4.6047,-4.6022,-4.6068,-4.6076,-4.6094,-4.6148,-4.6172,-4.6155,-4.6258,-4.6224,-4.6229,-4.6232,-4.6264,-4.6275,-4.6285,-4.6153,-4.6153,-4.6152,0,0,-4.5969,-4.5982,-4.6025,-4.604,-4.6063,-4.6065,-4.6076,-4.6094,-4.6099,-4.6145,-4.6128,-4.6157,-4.6205,-4.622,-4.6234,-4.6312,-4.6297,-4.632,-4.6363,-4.6396,-4.6406,-4.6414,-4.6444,-4.6454,-4.6326,-4.6327,-4.6327,0,-4.6,-4.6051,-4.6048,-4.6086,-4.6104,-4.6086,-4.613,-4.6144,-4.6173,-4.6186,-4.6167,-4.623,-4.6241,-4.6299,-4.6318,-4.6329,-4.6341,-4.6319,-4.6405,-4.6413,-4.6421,-4.6449,-4.646,-4.6329,-4.6329,-4.6329,-4.6328,0,-4.609,-4.6126,-4.6157,-4.6189,-4.621,-4.6251,-4.6253,-4.6275,-4.6269,-4.6274,-4.6322,-4.6335,-4.6365,-4.6378,-4.6371,-4.6436,-4.6425,-4.6406,-4.6372,-4.6435,-4.6461,-4.6472,-4.6333,-4.6332,-4.6332,-4.6331,0,0,-4.6178,-4.621,-4.6222,-4.6238,-4.6262,-4.6289,-4.6329,-4.6361,-4.6381,-4.6402,-4.6436,-4.6479,-4.6462,-4.6478,-4.6473,-4.6502,-4.6565,-4.6479,-4.6479,-4.6496,-4.664,-4.6655,-4.6668,-4.6555,-4.6557,-4.6559,-4.6639,0,-4.625,-4.6323,-4.6322,-4.6388,-4.6422,-4.6407,-4.6442,-4.6461,-4.6467,-4.6496,-4.6501,-4.6533,-4.6507,-4.6517,-4.6545,-4.6552,-4.6594,-4.6546,-4.6587,-4.6589,-4.6585,-4.6681,-4.6698,-4.6772,-4.6649,-4.6651,-4.6652,0,-4.6343,-4.6371,-4.6442,-4.6465,-4.6479,-4.6511,-4.6541,-4.6569,-4.659,-4.6592,-4.6612,-4.6603,-4.6644,-4.6609,-4.6666,-4.6633,-4.665,-4.6656,-4.6659,-4.6664,-4.6625,-4.669,-4.6796,-4.6808,-4.6668,-4.6666,-4.6665,0,-4.6403,-4.6458,-4.6508,-4.6522,-4.6549,-4.6572,-4.6584,-4.6604,-4.6624,-4.665,-4.6663,-4.6692,-4.6709,-4.6732,-4.6731,-4.6706,-4.679,-4.6754,-4.6793,-4.6793,-4.6812,-4.6811,-4.6923,-4.682,-4.682,-4.682,-4.682,0,-4.6484,-4.6529,-4.6536,-4.6567,-4.6617,-4.6616,-4.6665,-4.6674,-4.6693,-4.6725,-4.6712,-4.6743,-4.674,-4.6771,-4.677,-4.6819,-4.6825,-4.6829,-4.6828,-4.6831,-4.6831,-4.6843,-4.6838,-4.6823,-4.6822,-4.6822,-4.6821,0,-4.656,-4.6567,-4.6621,-4.6644,-4.6651,-4.6687,-4.6705,-4.6735,-4.674,-4.6782,-4.6791,-4.68,-4.6836,-4.6838,-4.6878,-4.6878,-4.6937,-4.693,-4.6931,-4.693,-4.697,-4.6967,-4.7095,-4.7113,-4.6997,-4.6998,-4.6999,0,-4.6612,-4.6647,-4.6674,-4.6696,-4.6711,-4.6746,-4.6767,-4.6767,-4.679,-4.6819,-4.6845,-4.688,-4.6909,-4.6967,-4.6976,-4.7007,-4.7002,-4.7044,-4.7006,-4.7009,-4.7005,-4.7004,-4.7008,-4.7052,-4.7053,-4.7054,-4.7055,0,-4.6704,-4.6707,-4.6739,-4.6774,-4.6801,-4.6827,-4.6852,-4.687,-4.6873,-4.69,-4.6938,-4.696,-4.7003,-4.7039,-4.707,-4.7081,-4.707,-4.7067,-4.7079,-4.7082,-4.7082,-4.7085,-4.6953,-4.7065,-4.7064,-4.7063,-4.7062,-4.7062,-4.6771,-4.6802,-4.6828,-4.6865,-4.6885,-4.6909,-4.6939,-4.695,-4.6982,-4.7019,-4.7016,-4.7059,-4.7081,-4.7122,-4.7137,-4.7169,-4.7155,-4.717,-4.7174,-4.7179,-4.7184,-4.7076,-4.7175,-4.7174,-4.7174,-4.7174,-4.7174,0,-4.6865,-4.6881,-4.6916,-4.6953,-4.6982,-4.6971,-4.6998,-4.7023,-4.7062,-4.7084,-4.7114,-4.7159,-4.7194,-4.7206,-4.7241,-4.7265,-4.726,-4.7274,-4.7273,-4.7276,-4.7194,-4.7182,-4.7277,-4.7277,-4.7277,-4.7277,-4.7277,-4.7277,-4.6917,-4.697,-4.6976,-4.704,-4.7055,-4.7099,-4.7116,-4.7138,-4.7157,-4.7208,-4.7239,-4.7247,-4.7267,-4.7303,-4.7334,-4.7337,-4.7351,-4.7368,-4.7368,-4.7292,-4.7281,-4.7271,-4.726,-4.737,-4.737,-4.7448,-4.7448,-4.7449]}]]